Regional Weather Roundup
Issued by NWS Little Rock, AR

Home | Current Version | Previous Version | Graphics & Text | Print | Product List | Glossary On
Versions: 1 2 3 4 5 6 7 8 9 10 11 12 13 14 15 16 17 18 19 20 21 22 23 24 25 26 27 28 29 30 31 32 33 34 35 36 37 38 39 40 41 42 43 44 45 46 47 48 49 50
798
ASUS44 KLZK 180305
RWRLZK

WEATHER ROUNDUP FOR ARKANSAS
NATIONAL WEATHER SERVICE LITTLE ROCK AR
900 PM CST TUE JAN 17 2017

NOTE: "FAIR" INDICATES FEW OR NO CLOUDS BELOW 12,000 FEET WITH NO
SIGNIFICANT WEATHER AND/OR OBSTRUCTIONS TO VISIBILITY.

ARZ001-003-010-029-180400-
NORTHWEST ARKANSAS

CITY           SKY/WX    TMP DP  RH WIND       PRES   REMARKS
FAYETTEVILLE   CLOUDY    38  37  97 CALM      30.18R
FORT SMITH     PTCLDY    42  37  82 CALM      30.18F
HARRISON       CLOUDY    38  36  92 NW6       30.16S
BENTONVILLE    CLOUDY   N/A N/A N/A CALM      30.18R
ROGERS         CLOUDY    38  36  92 CALM      30.18S
SILOAM SPGS    CLOUDY    39  36  87 S5        30.19R
HIGHFILL       CLOUDY    39  36  89 CALM      30.17S
SPRINGDALE     CLOUDY    39  37  93 CALM      30.19S
$$

ARZ004-005-016-180400-
NORTH CENTRAL ARKANSAS

CITY           SKY/WX    TMP DP  RH WIND       PRES   REMARKS
BATESVILLE     CLOUDY    43  37  81 W3        30.21R
FLIPPIN        PTCLDY    37  34  87 CALM      30.16S
MTN HOME       PTCLDY    39  36  89 N3        30.16F
$$

ARZ040-041-180400-
WEST CENTRAL ARKANSAS

CITY           SKY/WX    TMP DP  RH WIND       PRES   REMARKS
MENA           CLOUDY    48  46  93 CALM      30.14S
MOUNT IDA      CLOUDY    47  44  90 CALM      30.11F
$$

ARZ009-017-025-026-028-180400-
NORTHEAST ARKANSAS

CITY           SKY/WX    TMP DP  RH WIND       PRES   REMARKS
CORNING        FAIR      43  41  93 CALM      30.20R
JONESBORO      MOCLDY    44  41  89 CALM      30.19R
NEWPORT        CLOUDY    45  41  86 N3        30.20S
WALNUT RIDGE   PTCLDY    43  37  81 W3        30.19S
BLYTHEVILLE    PTCLDY    45  42  89 CALM      30.20R
$$

ARZ022-023-033-042-044-180400-
CENTRAL ARKANSAS

CITY           SKY/WX    TMP DP  RH WIND       PRES   REMARKS
LITTLE ROCK    CLOUDY    48  42  80 N6        30.17S
N LITTLE ROCK    N/A     46  42  83 N5        30.19S
JACKSONVILLE   CLOUDY    48  42  81 N3        30.16F
SEARCY         CLOUDY    46  44  93 N3        30.19F
HOT SPRINGS    CLOUDY    50  45  83 E5        30.13F
RUSSELLVILLE   CLOUDY    44  38  79 NW8       30.18F
CLINTON        FAIR      41  39  93 CALM      30.19F
$$

ARZ036-180400-
EAST ARKANSAS

CITY           SKY/WX    TMP DP  RH WIND       PRES   REMARKS
WEST MEMPHIS   CLOUDY    48  46  93 N6        30.18S
$$

ARZ050-053-066-070-073-180400-
SOUTHWEST ARKANSAS

CITY           SKY/WX    TMP DP  RH WIND       PRES   REMARKS
ARKADELPHIA    FAIR      53  50  89 VRB3      30.15F
CAMDEN         CLOUDY    52  48  87 S3        30.17R
TEXARKANA      LGT RAIN  50  50 100 CALM      30.14S
EL DORADO      CLOUDY    52  51  97 SE3       30.16R
DE QUEEN       CLOUDY    49  46  90 W5        30.16R
$$

ARZ056-057-069-180400-
SOUTHEAST ARKANSAS

CITY           SKY/WX    TMP DP  RH WIND       PRES   REMARKS
PINE BLUFF     CLOUDY    52  48  86 NE5       30.16F
STUTTGART      CLOUDY    50  41  71 NE3       30.19S
MONTICELLO     CLOUDY    53  51  93 CALM      30.16F

$$






USA.gov is the U.S. government's official web portal to all federal, state and local government web resources and services.